Weather History for Benson, United Kingdom

Change the Weather History Date:

Friday, November 16, 2012

  Actual Average Record
Temperature  
Mean Temperature 46 °F -  
Max Temperature 50 °F 46 °F 59 °F (1997)
Min Temperature 42 °F 36 °F 21 °F (2007)
Degree Days  
Heating Degree Days 19    
Moisture  
Dew Point 44 °F    
Average Humidity 94    
Maximum Humidity 100    
Minimum Humidity 84    
Precipitation  
Precipitation 0.02 in - - ()
Sea Level Pressure  
Sea Level Pressure 29.92 in    
Wind  
Wind Speed 5 mph ()    
Max Wind Speed 12 mph    
Max Gust Speed -    
Visibility 2.3 miles    
Events Rain    
Averages and records for this station are not official NWS values.
T = Trace of Precipitation, MM = Missing Value Source: Averaged Metar Reports

Daily Weather History Graph

Daily Weather History Graph

Search for Another Location

Airport:

Trip Planner

Search our weather history database for the weather conditions in past years. The results will help you decide how hot, cold, wet, or windy it might be!

Date:

Astronomy

Nov. 16, 2012 Rise Set
Actual Time 7:25 AM GMT 4:12 PM GMT
Civil Twilight 6:47 AM GMT 4:50 PM GMT
Nautical Twilight 6:06 AM GMT 5:30 PM GMT
Astronomical Twilight 5:27 AM GMT 6:10 PM GMT
Moon 10:13 AM GMT (11/16) 6:48 PM GMT (11/16)
Length of Visible Light 10h 02m
Length of Day
8h 47m
Waxing Crescent, 10% of the Moon is Illuminated
Nov 16
Waxing Crescent
Nov 20
First Quarter
Nov 28
Full
Dec 6
Last Quarter
Dec 13
New

Hourly Weather History & Observations

Time (GMT) Temp. Windchill Dew Point Humidity Pressure Visibility Wind Dir Wind Speed Gust Speed Precip Events Conditions
12:50 AM 44.6 °F 43.1 °F 41.0 °F 87% 30.06 in 2.5 mi SSE 3.5 mph - N/A   Haze
1:50 AM 42.8 °F 40.1 °F 41.0 °F 93% 30.04 in 3.1 mi SSE 4.6 mph - N/A   Overcast
2:50 AM 44 °F - 41 °F 85% 30.06 in 3 mi South 4.6 mph - -   Overcast
2:50 AM 42.8 °F 40.1 °F 41.0 °F 93% 30.04 in 3.1 mi South 4.6 mph - N/A   Overcast
3:50 AM 44.6 °F 40.7 °F 41.0 °F 87% 30.04 in 2.8 mi South 6.9 mph - N/A   Haze
4:50 AM 42.8 °F 39.3 °F 41.0 °F 93% 30.04 in 2.5 mi SSE 5.8 mph - N/A   Haze
5:50 AM 43 °F - 40 °F 84% 30.04 in 2 mi South 4.6 mph - -   Haze
5:50 AM 42.8 °F 40.1 °F 39.2 °F 87% 30.04 in 2.5 mi South 4.6 mph - N/A   Haze
6:50 AM 42.8 °F 39.3 °F 41.0 °F 93% 30.01 in 3.1 mi SSE 5.8 mph - N/A   Haze
7:50 AM 42.8 °F 39.3 °F 41.0 °F 93% 30.01 in 2.5 mi ESE 5.8 mph - N/A   Haze
8:50 AM 43 °F - 41 °F 91% 30.02 in 2 mi ESE 6.9 mph - -   Haze
8:50 AM 42.8 °F 38.6 °F 41.0 °F 93% 30.01 in 2.2 mi ESE 6.9 mph - N/A   Haze
9:50 AM 42.8 °F 38.6 °F 42.8 °F 100% 29.98 in 1.2 mi SSE 6.9 mph - N/A   Overcast
10:50 AM 44.6 °F 41.4 °F 42.8 °F 93% 29.98 in 1.4 mi SE 5.8 mph - N/A   Light Drizzle
11:50 AM 45 °F - 43 °F 91% 29.97 in 3 mi SE 4.6 mph - - Rain Light Drizzle
11:50 AM 44.6 °F 42.2 °F 42.8 °F 93% 29.95 in 2.8 mi SE 4.6 mph - N/A   Haze
12:50 PM 44.6 °F 41.4 °F 44.6 °F 100% 29.92 in 2.5 mi ESE 5.8 mph - N/A   Overcast
1:50 PM 46.4 °F 43.5 °F 44.6 °F 93% 29.92 in 2.2 mi SE 5.8 mph - N/A   Overcast
2:50 PM 46 °F - 45 °F 96% 29.89 in 1 mi SE 6.9 mph - - Rain Light Rain
2:50 PM 46.4 °F 42.9 °F 44.6 °F 93% 29.89 in 0.7 mi SE 6.9 mph - N/A   Overcast
3:50 PM 46.4 °F 42.9 °F 46.4 °F 100% 29.86 in - SE 6.9 mph - N/A   Overcast
4:50 PM 46.4 °F 42.9 °F 46.4 °F 100% 29.86 in 0.7 mi SSE 6.9 mph - N/A   Overcast
5:50 PM 47 °F - 47 °F 100% 29.83 in 2 mi SE 10.4 mph - -   Overcast
5:50 PM 48.2 °F - 46.4 °F 93% 29.83 in 1.7 mi SE 10.4 mph - N/A   Overcast
6:50 PM 48.2 °F - 46.4 °F 93% 29.83 in - SSE 10.4 mph - N/A   Overcast
7:50 PM 48.2 °F - 48.2 °F 100% 29.80 in - SSE 6.9 mph - N/A   Overcast
8:50 PM 49 °F - 48 °F 93% 29.80 in 3 mi SSE 8.1 mph - -   Overcast
8:50 PM 48.2 °F - 48.2 °F 100% 29.77 in - SSE 8.1 mph - N/A   Overcast
9:50 PM 50.0 °F - 48.2 °F 94% 29.77 in - South 8.1 mph - N/A   Overcast
10:50 PM 50.0 °F - 48.2 °F 94% 29.74 in 3.1 mi SSE 9.2 mph - N/A   Overcast
11:50 PM 50 °F - 49 °F 95% 29.74 in 3 mi SSE 11.5 mph - -   Scattered Clouds
11:50 PM 50.0 °F - 48.2 °F 94% 29.71 in 3.1 mi SSE 11.5 mph - N/A   Partly Cloudy